AXM27 VRMM-VTBS

Flight info

Callsign AXM27
Flight time N/A
Altitude 39000
Route ATSON1B ATSON G465 KAT P762 NIMOV/N0466F410 P762 DWI L877 MIGAR L524 IBETO WILLA1C
Aircraft A339/H-SADE1E2E3GHIJ3J5M1P2RWXY/LB2D1

Departure

Time 2026-05-05 01:38
Airport Velana International Airport (VRMM)

Arrival

Time N/A
Airport Suvarnabhumi Airport (VTBS)
Time Latitude Longitude Altitude Speed Heading
2026-05-05 00:51 4.18658 73.52795 17 ft 0 kts 272°
2026-05-05 01:29 4.18658 73.52804 19 ft 4 kts 277°
2026-05-05 01:29 4.18650 73.52828 22 ft 4 kts 313°
2026-05-05 01:30 4.18629 73.52840 22 ft 4 kts
2026-05-05 01:30 4.18602 73.52836 22 ft 4 kts 13°
2026-05-05 01:30 4.18581 73.52832 22 ft 0 kts 359°
2026-05-05 01:33 4.18583 73.52832 22 ft 0 kts 359°
2026-05-05 01:33 4.18606 73.52832 21 ft 8 kts 359°
2026-05-05 01:33 4.18648 73.52861 21 ft 7 kts 60°
2026-05-05 01:34 4.18686 73.52911 18 ft 14 kts 33°
2026-05-05 01:34 4.18837 73.52919 21 ft 32 kts 359°
2026-05-05 01:34 4.19073 73.52916 22 ft 34 kts 359°
2026-05-05 01:34 4.19317 73.52912 18 ft 39 kts 359°
2026-05-05 01:35 4.19612 73.52908 16 ft 45 kts 359°
2026-05-05 01:35 4.19925 73.52902 15 ft 44 kts 359°
2026-05-05 01:35 4.20218 73.52898 17 ft 39 kts 360°
2026-05-05 01:35 4.20472 73.52894 18 ft 29 kts 355°
2026-05-05 01:36 4.20584 73.52835 19 ft 8 kts 343°
2026-05-05 01:36 4.20609 73.52841 22 ft 1 kts 40°
2026-05-05 01:36 4.20610 73.52844 23 ft 3 kts 53°
2026-05-05 01:36 4.20607 73.52872 22 ft 3 kts 115°
2026-05-05 01:37 4.20589 73.52884 24 ft 4 kts 147°
2026-05-05 01:37 4.20560 73.52890 23 ft 0 kts 175°
2026-05-05 01:37 4.20529 73.52892 19 ft 29 kts 177°
2026-05-05 01:37 4.20016 73.52901 16 ft 116 kts 178°
2026-05-05 01:38 4.18987 73.52905 68 ft 178 kts 181°
2026-05-05 01:38 4.17789 73.52942 554 ft 156 kts 181°
2026-05-05 01:38 4.16706 73.52974 846 ft 158 kts 181°
2026-05-05 01:38 4.15587 73.53038 1219 ft 162 kts 181°
2026-05-05 01:39 4.14476 73.53101 1648 ft 163 kts 180°
2026-05-05 01:39 4.13215 73.53168 1576 ft 196 kts 181°
2026-05-05 01:39 4.11781 73.53217 1745 ft 218 kts 182°
2026-05-05 01:39 4.10159 73.53193 1770 ft 248 kts 184°
2026-05-05 01:40 4.08342 73.53117 1784 ft 273 kts 184°
2026-05-05 01:40 4.06363 73.53050 1777 ft 295 kts 184°
2026-05-05 01:40 4.04240 73.53009 1767 ft 313 kts 182°
2026-05-05 01:40 4.02000 73.52997 1956 ft 330 kts 182°
2026-05-05 01:41 3.99786 73.53290 3304 ft 312 kts 164°
2026-05-05 01:41 3.98563 73.53888 3924 ft 283 kts 148°
2026-05-05 01:41 3.97293 73.55288 4297 ft 271 kts 120°
2026-05-05 01:41 3.96803 73.57144 4673 ft 284 kts 94°
2026-05-05 01:42 3.96849 73.59130 4858 ft 286 kts 87°
2026-05-05 01:42 3.96989 73.61125 4946 ft 287 kts 86°
2026-05-05 01:42 3.97097 73.63115 4977 ft 285 kts 88°
2026-05-05 01:42 3.97164 73.65097 4997 ft 286 kts 89°
2026-05-05 01:43 3.97209 73.67092 4998 ft 287 kts 90°
2026-05-05 01:43 3.97239 73.69088 5006 ft 286 kts 90°
2026-05-05 01:43 3.97256 73.71067 5074 ft 283 kts 91°
2026-05-05 01:43 3.97271 73.73050 5227 ft 286 kts 89°
2026-05-05 01:44 3.97611 73.75016 5851 ft 288 kts 76°
2026-05-05 01:44 3.98191 73.76942 6686 ft 289 kts 72°
2026-05-05 01:44 3.98856 73.78846 7481 ft 291 kts 70°
2026-05-05 01:44 3.99584 73.80742 8283 ft 293 kts 68°
2026-05-05 01:45 4.00350 73.82611 9084 ft 295 kts 67°
2026-05-05 01:45 4.01163 73.84504 9880 ft 297 kts 66°
2026-05-05 01:45 4.02011 73.86421 10439 ft 308 kts 65°
2026-05-05 01:45 4.02923 73.88431 10729 ft 327 kts 65°
2026-05-05 01:46 4.03902 73.90555 11061 ft 344 kts 64°
2026-05-05 01:46 4.04936 73.92775 11436 ft 359 kts 64°
2026-05-05 01:46 4.06016 73.95083 11832 ft 372 kts 64°
2026-05-05 01:46 4.07134 73.97468 12237 ft 384 kts 64°
2026-05-05 01:47 4.08286 73.99919 12701 ft 394 kts 64°
2026-05-05 01:47 4.09459 74.02412 13347 ft 397 kts 64°
2026-05-05 01:47 4.10640 74.04925 13948 ft 401 kts 64°
2026-05-05 01:47 4.11835 74.07462 14513 ft 405 kts 64°
2026-05-05 01:48 4.13045 74.10027 15065 ft 410 kts 64°
2026-05-05 01:48 4.14272 74.12624 15615 ft 414 kts 64°
2026-05-05 01:48 4.15511 74.15248 16178 ft 419 kts 64°
2026-05-05 01:48 4.16763 74.17902 16733 ft 424 kts 64°
2026-05-05 01:49 4.18028 74.20585 17286 ft 428 kts 64°
2026-05-05 01:49 4.19303 74.23291 17859 ft 432 kts 64°
2026-05-05 01:49 4.20594 74.26032 18359 ft 436 kts 64°
2026-05-05 01:49 4.21888 74.28784 18850 ft 439 kts 64°
2026-05-05 01:50 4.23194 74.31564 19379 ft 441 kts 64°
2026-05-05 01:50 4.24505 74.34354 19862 ft 444 kts 64°
2026-05-05 01:50 4.25822 74.37160 20364 ft 446 kts 64°
2026-05-05 01:50 4.27132 74.39947 20842 ft 448 kts 64°
2026-05-05 01:51 4.28465 74.42783 21308 ft 451 kts 64°
2026-05-05 01:51 4.29806 74.45636 21767 ft 454 kts 64°
2026-05-05 01:51 4.31158 74.48514 22210 ft 457 kts 64°
2026-05-05 01:51 4.32516 74.51399 22655 ft 460 kts 64°
2026-05-05 01:52 4.33884 74.54307 23102 ft 463 kts 64°
2026-05-05 01:52 4.35262 74.57234 23518 ft 466 kts 64°
2026-05-05 01:52 4.36648 74.60182 23873 ft 468 kts 64°
2026-05-05 01:52 4.38042 74.63143 24233 ft 471 kts 65°
2026-05-05 01:53 4.39443 74.66119 24601 ft 473 kts 65°
2026-05-05 01:53 4.40833 74.69074 24954 ft 476 kts 65°
2026-05-05 01:53 4.42246 74.72079 25318 ft 478 kts 65°
2026-05-05 01:53 4.43650 74.75067 25768 ft 469 kts 65°
2026-05-05 01:54 4.45038 74.78019 26299 ft 468 kts 65°
2026-05-05 01:54 4.46421 74.80963 26881 ft 465 kts 65°
2026-05-05 01:54 4.47797 74.83890 27536 ft 462 kts 65°
2026-05-05 01:54 4.49159 74.86786 28208 ft 458 kts 65°
2026-05-05 01:55 4.50511 74.89663 28899 ft 454 kts 65°
2026-05-05 01:55 4.51854 74.92520 29605 ft 450 kts 65°
2026-05-05 01:55 4.53184 74.95351 30266 ft 446 kts 65°
2026-05-05 01:55 4.54502 74.98157 30892 ft 442 kts 66°
2026-05-05 01:56 4.55796 75.00912 31332 ft 444 kts 66°
2026-05-05 01:56 4.57117 75.03725 31605 ft 449 kts 66°
2026-05-05 01:56 4.58450 75.06566 31864 ft 447 kts 66°
2026-05-05 01:56 4.59782 75.09409 32129 ft 453 kts 66°
2026-05-05 01:57 4.61127 75.12280 32401 ft 458 kts 66°
2026-05-05 01:57 4.62490 75.15192 32665 ft 464 kts 66°
2026-05-05 01:57 4.63870 75.18138 32932 ft 469 kts 66°
2026-05-05 01:57 4.65264 75.21114 33204 ft 474 kts 66°
2026-05-05 01:58 4.66671 75.24121 33487 ft 478 kts 66°
2026-05-05 01:58 4.68089 75.27151 33780 ft 482 kts 66°
2026-05-05 01:58 4.69520 75.30206 34030 ft 486 kts 66°
2026-05-05 01:58 4.70961 75.33282 34280 ft 488 kts 66°
2026-05-05 01:59 4.72393 75.36338 34874 ft 481 kts 66°
2026-05-05 01:59 4.73810 75.39363 35433 ft 477 kts 66°
2026-05-05 01:59 4.75206 75.42319 35892 ft 475 kts 64°
2026-05-05 01:59 4.77047 75.45071 36288 ft 476 kts 52°
2026-05-05 02:00 4.79210 75.47578 36790 ft 474 kts 49°
2026-05-05 02:00 4.81435 75.50007 37289 ft 471 kts 47°
2026-05-05 02:00 4.83675 75.52388 37801 ft 469 kts 47°
2026-05-05 02:00 4.85926 75.54739 38311 ft 466 kts 46°
2026-05-05 02:01 4.88188 75.57080 38637 ft 468 kts 46°
2026-05-05 02:01 4.90466 75.59421 38766 ft 470 kts 46°
2026-05-05 02:01 4.95021 75.64080 38852 ft 465 kts 46°
2026-05-05 02:02 4.99534 75.68686 38874 ft 461 kts 46°
2026-05-05 02:02 5.04034 75.73276 38880 ft 462 kts 46°
2026-05-05 02:03 5.08548 75.77882 38882 ft 463 kts 46°
2026-05-05 02:03 5.13061 75.82486 38880 ft 462 kts 46°
2026-05-05 02:04 5.17535 75.87052 38881 ft 461 kts 46°
2026-05-05 02:04 5.22035 75.91646 38883 ft 462 kts 46°
2026-05-05 02:05 5.26536 75.96249 38885 ft 462 kts 46°
2026-05-05 02:05 5.31043 76.00858 38880 ft 461 kts 47°
2026-05-05 02:06 5.32987 76.03401 38893 ft 459 kts 59°
2026-05-05 02:06 5.34522 76.06210 38880 ft 460 kts 63°
2026-05-05 02:06 5.37365 76.11972 38879 ft 461 kts 64°
2026-05-05 02:07 5.40105 76.17801 38878 ft 461 kts 65°
2026-05-05 02:07 5.42781 76.23601 38888 ft 461 kts 65°
2026-05-05 02:08 5.45456 76.29445 38895 ft 461 kts 65°
2026-05-05 02:08 5.48126 76.35297 38891 ft 461 kts 65°
2026-05-05 02:09 5.50796 76.41161 38889 ft 462 kts 66°
2026-05-05 02:09 5.53464 76.47032 38891 ft 461 kts 66°
2026-05-05 02:10 5.56124 76.52892 38888 ft 461 kts 66°
2026-05-05 02:10 5.58784 76.58758 38889 ft 462 kts 66°
2026-05-05 02:11 5.61431 76.64602 38883 ft 462 kts 66°
2026-05-05 02:11 5.64091 76.70474 38873 ft 461 kts 66°
2026-05-05 02:12 5.68070 76.79271 38874 ft 461 kts 66°
2026-05-05 02:13 5.70728 76.85148 38882 ft 462 kts 66°
2026-05-05 02:13 5.73383 76.91023 38884 ft 461 kts 65°
2026-05-05 02:14 5.76018 76.96854 38884 ft 461 kts 65°
2026-05-05 02:14 5.78669 77.02721 38878 ft 461 kts 65°
2026-05-05 02:15 5.81318 77.08585 38875 ft 461 kts 65°
2026-05-05 02:15 5.83969 77.14451 38877 ft 461 kts 65°
2026-05-05 02:16 5.86622 77.20325 38876 ft 461 kts 65°
2026-05-05 02:16 5.89254 77.26153 38881 ft 461 kts 65°
2026-05-05 02:17 5.91898 77.32014 38885 ft 461 kts 66°
2026-05-05 02:17 5.94544 77.37881 38888 ft 461 kts 66°
2026-05-05 02:18 5.97189 77.43753 38882 ft 461 kts 66°
2026-05-05 02:18 5.99895 77.49599 38886 ft 460 kts 64°
2026-05-05 02:19 6.02746 77.55357 38883 ft 460 kts 63°
2026-05-05 02:19 6.05641 77.61100 38885 ft 461 kts 63°
2026-05-05 02:20 6.08551 77.66848 38884 ft 461 kts 63°
2026-05-05 02:20 6.11461 77.72590 38882 ft 460 kts 63°
2026-05-05 02:21 6.14343 77.78280 38884 ft 460 kts 63°
2026-05-05 02:21 6.17246 77.84013 38879 ft 461 kts 63°
2026-05-05 02:22 6.20151 77.89754 38881 ft 461 kts 63°
2026-05-05 02:22 6.23052 77.95487 38887 ft 460 kts 63°
2026-05-05 02:23 6.25952 78.01217 38885 ft 460 kts 63°
2026-05-05 02:23 6.28859 78.06966 38882 ft 461 kts 63°
2026-05-05 02:24 6.31763 78.12712 38879 ft 461 kts 63°
2026-05-05 02:24 6.34665 78.18454 38880 ft 460 kts 63°
2026-05-05 02:25 6.37565 78.24196 38882 ft 461 kts 64°
2026-05-05 02:25 6.40471 78.29952 38874 ft 462 kts 64°
2026-05-05 02:26 6.43356 78.35671 38879 ft 461 kts 64°
2026-05-05 02:26 6.46257 78.41419 38874 ft 460 kts 64°
2026-05-05 02:27 6.49155 78.47167 38879 ft 461 kts 64°
2026-05-05 02:27 6.52055 78.52922 38874 ft 461 kts 64°
2026-05-05 02:28 6.54952 78.58669 38881 ft 460 kts 64°
2026-05-05 02:28 6.57356 78.63441 38882 ft 460 kts 64°
2026-05-05 02:29 6.60250 78.69186 38879 ft 460 kts 64°
2026-05-05 02:29 6.63145 78.74940 38877 ft 461 kts 64°
2026-05-05 02:30 6.66039 78.80689 38877 ft 460 kts 64°
2026-05-05 02:30 6.68931 78.86436 38877 ft 461 kts 64°
2026-05-05 02:31 6.71809 78.92160 38880 ft 461 kts 64°
2026-05-05 02:31 6.74708 78.97930 38875 ft 462 kts 64°
2026-05-05 02:32 6.77580 79.03702 38871 ft 461 kts 65°
2026-05-05 02:32 6.80348 79.09524 38877 ft 461 kts 65°
2026-05-05 02:33 6.83082 79.15375 38869 ft 462 kts 65°
2026-05-05 02:33 6.85801 79.21231 38876 ft 463 kts 65°
2026-05-05 02:34 6.88525 79.27106 38883 ft 463 kts 65°
2026-05-05 02:34 6.91245 79.32981 38885 ft 463 kts 65°
2026-05-05 02:35 6.93946 79.38818 38881 ft 463 kts 65°
2026-05-05 02:35 6.96688 79.44748 38883 ft 464 kts 65°
2026-05-05 02:36 6.99409 79.50634 38885 ft 464 kts 65°
2026-05-05 02:36 7.02131 79.56521 38885 ft 463 kts 65°
2026-05-05 02:37 7.04831 79.62364 38880 ft 464 kts 65°
2026-05-05 02:37 7.07558 79.68267 38885 ft 465 kts 65°
2026-05-05 02:38 7.10283 79.74170 38884 ft 465 kts 65°
2026-05-05 02:38 7.13008 79.80075 38888 ft 465 kts 65°
2026-05-05 02:39 7.15649 79.86024 38892 ft 464 kts 68°
2026-05-05 02:39 7.17999 79.92090 38886 ft 465 kts 70°
2026-05-05 02:40 7.20268 79.98190 38887 ft 466 kts 70°
2026-05-05 02:40 7.22519 80.04311 38890 ft 465 kts 70°
2026-05-05 02:41 7.24745 80.10390 38889 ft 465 kts 70°
2026-05-05 02:41 7.26984 80.16514 38898 ft 466 kts 70°
2026-05-05 02:42 7.29221 80.22643 38902 ft 466 kts 70°
2026-05-05 02:42 7.31459 80.28777 38906 ft 466 kts 71°
2026-05-05 02:43 7.33693 80.34900 38910 ft 465 kts 71°
2026-05-05 02:43 7.35926 80.41033 38914 ft 466 kts 71°
2026-05-05 02:44 7.38141 80.47119 38919 ft 466 kts 71°
2026-05-05 02:44 7.40368 80.53242 38920 ft 464 kts 71°
2026-05-05 02:45 7.42589 80.59345 38920 ft 464 kts 71°
2026-05-05 02:45 7.44808 80.65446 38910 ft 464 kts 71°
2026-05-05 02:46 7.47023 80.71536 38911 ft 462 kts 71°
2026-05-05 02:46 7.49228 80.77606 38914 ft 461 kts 71°
2026-05-05 02:47 7.51432 80.83687 38906 ft 462 kts 71°
2026-05-05 02:47 7.53643 80.89791 38902 ft 464 kts 71°
2026-05-05 02:48 7.55854 80.95902 38895 ft 464 kts 71°
2026-05-05 02:48 7.58024 81.01963 38889 ft 462 kts 71°
2026-05-05 02:49 7.60186 81.08062 38881 ft 463 kts 71°
2026-05-05 02:49 7.62350 81.14185 38875 ft 464 kts 71°
2026-05-05 02:50 7.64508 81.20306 38874 ft 462 kts 71°
2026-05-05 02:50 7.66660 81.26420 38875 ft 462 kts 71°
2026-05-05 02:51 7.68813 81.32542 38874 ft 464 kts 71°
2026-05-05 02:51 7.70972 81.38684 38872 ft 465 kts 71°
2026-05-05 02:52 7.73128 81.44819 38871 ft 464 kts 71°
2026-05-05 02:52 7.75281 81.50952 38873 ft 464 kts 71°
2026-05-05 02:53 7.77440 81.57101 38871 ft 466 kts 71°
2026-05-05 02:53 7.79587 81.63217 38871 ft 466 kts 71°
2026-05-05 02:54 7.81747 81.69381 38872 ft 466 kts 71°
2026-05-05 02:54 7.83911 81.75557 38871 ft 467 kts 71°
2026-05-05 02:55 7.86078 81.81746 38869 ft 469 kts 71°
2026-05-05 02:55 7.88251 81.87950 38869 ft 468 kts 71°
2026-05-05 02:56 7.90419 81.94145 38872 ft 468 kts 71°
2026-05-05 02:56 7.92586 82.00343 38868 ft 469 kts 71°
2026-05-05 02:57 7.94747 82.06517 38873 ft 470 kts 71°
2026-05-05 02:57 7.96925 82.12735 38873 ft 468 kts 71°
2026-05-05 02:58 7.99092 82.18928 38876 ft 467 kts 71°
2026-05-05 02:58 8.01255 82.25113 38878 ft 468 kts 71°
2026-05-05 02:59 8.03411 82.31294 38876 ft 468 kts 71°
2026-05-05 02:59 8.05569 82.37477 38879 ft 466 kts 71°
2026-05-05 03:00 8.07719 82.43648 38877 ft 465 kts 71°
2026-05-05 03:00 8.09867 82.49823 38877 ft 466 kts 71°
2026-05-05 03:01 8.12001 82.55957 38879 ft 466 kts 71°
2026-05-05 03:01 8.14144 82.62124 38883 ft 465 kts 71°
2026-05-05 03:02 8.16287 82.68291 38882 ft 464 kts 71°
2026-05-05 03:02 8.18424 82.74443 38883 ft 465 kts 71°
2026-05-05 03:03 8.20563 82.80606 38880 ft 465 kts 71°
2026-05-05 03:03 8.22702 82.86782 38882 ft 464 kts 71°
2026-05-05 03:04 8.24821 82.92926 38885 ft 464 kts 71°
2026-05-05 03:04 8.26943 82.99094 38883 ft 465 kts 71°
2026-05-05 03:05 8.29052 83.05230 38882 ft 465 kts 71°
2026-05-05 03:05 8.31170 83.11397 38889 ft 464 kts 71°
2026-05-05 03:06 8.33281 83.17551 38886 ft 464 kts 71°
2026-05-05 03:06 8.35397 83.23717 38883 ft 465 kts 71°
2026-05-05 03:07 8.37513 83.29889 38884 ft 464 kts 71°
2026-05-05 03:07 8.39626 83.36054 38886 ft 464 kts 71°
2026-05-05 03:08 8.41723 83.42178 38880 ft 464 kts 71°
2026-05-05 03:08 8.43834 83.48348 38883 ft 465 kts 71°
2026-05-05 03:09 8.45946 83.54520 38879 ft 465 kts 71°
2026-05-05 03:09 8.48054 83.60688 38885 ft 464 kts 71°
2026-05-05 03:10 8.50162 83.66855 38887 ft 464 kts 72°
2026-05-05 03:10 8.52272 83.73036 38887 ft 465 kts 72°
2026-05-05 03:11 8.54382 83.79219 38887 ft 466 kts 72°
2026-05-05 03:11 8.56491 83.85407 38884 ft 465 kts 72°
2026-05-05 03:12 8.58594 83.91578 38882 ft 465 kts 72°
2026-05-05 03:12 8.60345 83.96719 38885 ft 466 kts 72°
2026-05-05 03:13 8.62796 84.03919 38896 ft 466 kts 72°
2026-05-05 03:13 8.64560 84.09105 38882 ft 466 kts 72°
2026-05-05 03:14 8.66667 84.15307 38884 ft 466 kts 72°
2026-05-05 03:14 8.68756 84.21460 38897 ft 465 kts 72°
2026-05-05 03:15 8.70857 84.27649 38882 ft 465 kts 72°
2026-05-05 03:15 8.72958 84.33844 38880 ft 466 kts 72°
2026-05-05 03:16 8.75057 84.40035 38882 ft 465 kts 72°
2026-05-05 03:16 8.77150 84.46216 38892 ft 464 kts 72°
2026-05-05 03:17 8.79241 84.52388 38892 ft 464 kts 72°
2026-05-05 03:17 8.81329 84.58558 38892 ft 464 kts 72°
2026-05-05 03:18 8.83415 84.64728 38893 ft 464 kts 72°
2026-05-05 03:18 8.85506 84.70917 38882 ft 464 kts 72°
2026-05-05 03:19 8.88631 84.80142 38893 ft 464 kts 72°
2026-05-05 03:19 8.90748 84.86322 38881 ft 465 kts 72°
2026-05-05 03:20 8.92872 84.92509 38892 ft 466 kts 72°
2026-05-05 03:20 8.94995 84.98698 38891 ft 466 kts 72°
2026-05-05 03:21 8.97121 85.04899 38894 ft 467 kts 72°
2026-05-05 03:21 8.99249 85.11113 38893 ft 468 kts 72°
2026-05-05 03:22 9.01385 85.17353 38893 ft 469 kts 72°
2026-05-05 03:22 9.03519 85.23592 38888 ft 469 kts 72°
2026-05-05 03:23 9.05655 85.29839 38895 ft 469 kts 72°
2026-05-05 03:23 9.07789 85.36088 38898 ft 470 kts 72°
2026-05-05 03:24 9.09924 85.42349 38890 ft 471 kts 72°
2026-05-05 03:24 9.12046 85.48576 38890 ft 471 kts 72°
2026-05-05 03:25 9.14191 85.54873 38895 ft 471 kts 72°
2026-05-05 03:25 9.16315 85.61111 38891 ft 471 kts 72°
2026-05-05 03:26 9.18452 85.67388 38894 ft 472 kts 72°
2026-05-05 03:26 9.20593 85.73682 38896 ft 472 kts 72°
2026-05-05 03:27 9.22730 85.79970 38887 ft 472 kts 72°
2026-05-05 03:27 9.24877 85.86257 38890 ft 472 kts 71°
2026-05-05 03:28 9.27065 85.92530 38890 ft 472 kts 71°
2026-05-05 03:28 9.29264 85.98794 38889 ft 472 kts 71°
2026-05-05 03:29 9.31462 86.05048 38887 ft 471 kts 71°
2026-05-05 03:29 9.33644 86.11257 38891 ft 471 kts 71°
2026-05-05 03:30 9.35835 86.17502 38889 ft 471 kts 71°
2026-05-05 03:30 9.38027 86.23750 38887 ft 471 kts 71°
2026-05-05 03:31 9.40215 86.29994 38889 ft 470 kts 71°
2026-05-05 03:31 9.42405 86.36251 38886 ft 470 kts 71°
2026-05-05 03:32 9.44584 86.42478 38887 ft 470 kts 71°
2026-05-05 03:32 9.46771 86.48732 38886 ft 470 kts 71°
2026-05-05 03:33 9.48952 86.54975 38888 ft 470 kts 71°
2026-05-05 03:33 9.51130 86.61210 38892 ft 469 kts 71°
2026-05-05 03:34 9.53305 86.67440 38890 ft 469 kts 71°
2026-05-05 03:34 9.55483 86.73688 38890 ft 470 kts 71°
2026-05-05 03:35 9.57648 86.79899 38891 ft 470 kts 71°
2026-05-05 03:35 9.59821 86.86136 38893 ft 469 kts 71°
2026-05-05 03:36 9.61996 86.92386 38895 ft 469 kts 71°
2026-05-05 03:36 9.64168 86.98628 38891 ft 470 kts 71°
2026-05-05 03:37 9.66342 87.04882 38894 ft 470 kts 71°
2026-05-05 03:37 9.68514 87.11134 38898 ft 469 kts 71°
2026-05-05 03:38 9.70672 87.17355 38896 ft 471 kts 71°
2026-05-05 03:38 9.72849 87.23631 38900 ft 472 kts 71°
2026-05-05 03:39 9.75026 87.29919 38901 ft 472 kts 71°
2026-05-05 03:39 9.77254 87.36185 38899 ft 473 kts 71°
2026-05-05 03:40 9.79565 87.42449 38906 ft 475 kts 70°
2026-05-05 03:40 9.81907 87.48735 38906 ft 476 kts 70°
2026-05-05 03:41 9.84230 87.54967 38900 ft 475 kts 70°
2026-05-05 03:41 9.86568 87.61241 38902 ft 475 kts 70°
2026-05-05 03:42 9.88904 87.67508 38903 ft 475 kts 70°
2026-05-05 03:42 9.91239 87.73783 38903 ft 475 kts 70°
2026-05-05 03:43 9.93580 87.80076 38906 ft 475 kts 70°
2026-05-05 03:43 9.95909 87.86348 38905 ft 474 kts 70°
2026-05-05 03:44 9.98220 87.92565 38907 ft 474 kts 70°
2026-05-05 03:44 10.00539 87.98824 38907 ft 475 kts 70°
2026-05-05 03:45 10.02866 88.05108 38904 ft 476 kts 70°
2026-05-05 03:45 10.05193 88.11395 38907 ft 475 kts 70°
2026-05-05 03:46 10.07516 88.17672 38905 ft 475 kts 70°
2026-05-05 03:46 10.09836 88.23951 38903 ft 476 kts 70°
2026-05-05 03:47 10.12161 88.30244 38905 ft 476 kts 70°
2026-05-05 03:47 10.14484 88.36532 38906 ft 475 kts 70°
2026-05-05 03:48 10.16790 88.42777 38910 ft 475 kts 70°
2026-05-05 03:48 10.19110 88.49066 38909 ft 477 kts 70°
2026-05-05 03:49 10.21437 88.55378 38912 ft 477 kts 70°
2026-05-05 03:49 10.23767 88.61690 38909 ft 476 kts 70°
2026-05-05 03:50 10.26088 88.67978 38914 ft 476 kts 70°
2026-05-05 03:50 10.28414 88.74286 38911 ft 477 kts 70°
2026-05-05 03:51 10.30739 88.80603 38907 ft 477 kts 70°
2026-05-05 03:51 10.33057 88.86902 38908 ft 476 kts 70°
2026-05-05 03:52 10.35377 88.93217 38910 ft 477 kts 70°
2026-05-05 03:52 10.37699 88.99542 38913 ft 478 kts 70°
2026-05-05 03:53 10.40025 89.05875 38916 ft 478 kts 70°
2026-05-05 03:53 10.42349 89.12211 38918 ft 478 kts 70°
2026-05-05 03:54 10.44662 89.18518 38916 ft 480 kts 70°
2026-05-05 03:54 10.46993 89.24879 38914 ft 479 kts 70°
2026-05-05 03:55 10.49312 89.31214 38916 ft 477 kts 70°
2026-05-05 03:55 10.51625 89.37538 38916 ft 478 kts 70°
2026-05-05 03:56 10.53940 89.43870 38914 ft 477 kts 70°
2026-05-05 03:56 10.56247 89.50186 38918 ft 476 kts 69°
2026-05-05 03:57 10.58163 89.55434 38921 ft 476 kts 69°
2026-05-05 03:57 10.60840 89.62772 38921 ft 476 kts 69°
2026-05-05 03:58 10.63143 89.69093 38920 ft 476 kts 69°
2026-05-05 03:58 10.65055 89.74345 38920 ft 475 kts 69°
2026-05-05 03:59 10.67359 89.80675 38921 ft 474 kts 69°
2026-05-05 03:59 10.69633 89.86927 38920 ft 474 kts 69°
2026-05-05 04:00 10.71935 89.93260 38916 ft 474 kts 69°
2026-05-05 04:00 10.74192 89.99553 38919 ft 473 kts 70°
2026-05-05 04:01 10.76374 90.05815 38923 ft 473 kts 70°
2026-05-05 04:01 10.78558 90.12136 38922 ft 474 kts 70°
2026-05-05 04:02 10.80736 90.18462 38920 ft 474 kts 70°
2026-05-05 04:02 10.82912 90.24798 38921 ft 473 kts 70°
2026-05-05 04:03 10.85082 90.31118 38917 ft 473 kts 70°
2026-05-05 04:03 10.87253 90.37449 38922 ft 474 kts 70°
2026-05-05 04:04 10.89410 90.43745 38921 ft 475 kts 70°
2026-05-05 04:04 10.91583 90.50088 38918 ft 474 kts 70°
2026-05-05 04:05 10.93752 90.56424 38919 ft 474 kts 70°
2026-05-05 04:05 10.95922 90.62767 38919 ft 475 kts 70°
2026-05-05 04:06 10.98095 90.69130 38922 ft 475 kts 71°
2026-05-05 04:06 11.00263 90.75479 38923 ft 475 kts 71°
2026-05-05 04:07 11.02431 90.81833 38921 ft 476 kts 71°
2026-05-05 04:07 11.04602 90.88201 38923 ft 477 kts 71°
2026-05-05 04:08 11.06773 90.94583 38919 ft 476 kts 71°
2026-05-05 04:08 11.08920 91.00901 38921 ft 474 kts 71°
2026-05-05 04:09 11.11079 91.07259 38923 ft 475 kts 71°
2026-05-05 04:09 11.13240 91.13624 38923 ft 476 kts 71°
2026-05-05 04:10 11.15398 91.19988 38921 ft 474 kts 70°
2026-05-05 04:10 11.17551 91.26336 38920 ft 474 kts 70°
2026-05-05 04:11 11.19705 91.32692 38921 ft 475 kts 70°
2026-05-05 04:11 11.21858 91.39043 38922 ft 474 kts 71°
2026-05-05 04:12 11.24009 91.45389 38920 ft 473 kts 71°
2026-05-05 04:12 11.26153 91.51722 38922 ft 473 kts 71°
2026-05-05 04:13 11.28261 91.58030 38922 ft 473 kts 71°
2026-05-05 04:13 11.29454 91.64560 38926 ft 471 kts 91°
2026-05-05 04:14 11.29157 91.71231 38923 ft 472 kts 94°
2026-05-05 04:14 11.28803 91.77908 38921 ft 471 kts 88°
2026-05-05 04:15 11.29356 91.81189 38927 ft 473 kts 71°
2026-05-05 04:15 11.30816 91.84183 38933 ft 475 kts 55°
2026-05-05 04:15 11.35120 91.89326 38921 ft 478 kts 48°
2026-05-05 04:16 11.39613 91.94269 38920 ft 478 kts 47°
2026-05-05 04:16 11.44171 91.99225 38918 ft 479 kts 47°
2026-05-05 04:17 11.48741 92.04206 38918 ft 482 kts 47°
2026-05-05 04:17 11.53313 92.09219 38914 ft 483 kts 47°
2026-05-05 04:18 11.57877 92.14254 38914 ft 482 kts 47°
2026-05-05 04:18 11.62411 92.19288 38915 ft 482 kts 47°
2026-05-05 04:19 11.66941 92.24350 38915 ft 483 kts 47°
2026-05-05 04:19 11.71466 92.29439 38911 ft 483 kts 48°